Regional Weather Roundup
Issued by NWS Kansas City/Pleasant Hill, MO

Home | Current Version | Previous Version | Text Only | Print | Product List | Glossary On
Versions: 1 2 3 4 5 6 7 8 9 10 11 12 13 14 15 16 17 18 19 20 21 22 23 24 25 26 27 28 29 30 31 32 33 34 35 36 37 38 39 40 41 42 43 44 45 46 47 48 49 50
318
ASUS43 KEAX 290310
RWREAX

WEATHER ROUNDUP FOR EASTERN KANSAS AND NORTHWEST MISSOURI
NATIONAL WEATHER SERVICE KANSAS CITY/PLEASANT HILL MO
1000 PM CDT SAT MAY 28 2016

KSZ040-057-103>105-MOZ028-029-037-043-290400-
...KANSAS CITY METROPOLITAN AREA...

CITY           SKY/WX    TMP DP  RH WIND       PRES   REMARKS
K.C. INTL      CLEAR     65  59  81 S6        29.97R
K.C. DOWNTOWN  CLEAR     72  59  63 SW6       29.96R
LEES SUMMIT    CLEAR     69  60  73 SW5       29.99R
OLATHE - IXD   CLEAR     67  60  78 SW6       29.99R
OLATHE - OJC   CLEAR     68  59  73 SW3       29.98R
LAWRENCE       CLEAR     64  60  87 CALM      29.98R

$$

MOZ001>008-011>017-020>025-030>033-038>040-044>046-053-054-290400-
...NORTHERN AND CENTRAL MISSOURI...

CITY           SKY/WX    TMP DP  RH WIND       PRES   REMARKS
ST. JOSEPH     CLEAR     68  61  78 SW6       29.95R
MOSBY            N/A     64  61  88 CALM      29.97R
WARRENSBURG    CLEAR     68  61  77 S5        29.99R
WHITEMAN AFB   NOT AVBL
CLINTON        CLEAR     68  63  83 CALM      29.99R
SEDALIA        CLEAR     71  62  73 SW3       30.00R
WARSAW         NOT AVBL
CHILLICOTHE      N/A     66  62  87 CALM      29.97R
KIRKSVILLE     CLEAR     66  58  75 S5        29.97R

$$

MOZ041-047>049-056>058-063>065-088>090-097-290400-
...EASTERN AND SOUTHERN MISSOURI...

CITY           SKY/WX    TMP DP  RH WIND       PRES   REMARKS
ST. LOUIS INTL CLOUDY    79  65  62 SW10G21   29.98R
SPIRIT OF STL  CLOUDY    75  67  76 W10       29.97R
COLUMBIA       CLOUDY    72  63  73 SW5       30.00R
JEFFERSON CITY CLOUDY    73  62  68 E6        29.99R
ROLLA          CLOUDY    66  61  84 SW8       30.00S
SPRINGFIELD    CLEAR     68  61  78 SW5       30.02R
JOPLIN         CLEAR     67  63  87 S8        30.01R
WEST PLAINS    CLEAR     72  65  78 S7        30.04R

$$

IAZ060-094-KSZ022-034>040-054-083-096-NEZ052-066-093-290400-
...KANSAS...SOUTHEAST NEBRASKA AND IOWA...

CITY           SKY/WX    TMP DP  RH WIND       PRES   REMARKS
TOPEKA         CLEAR     69  58  67 SW6       29.98R
MANHATTAN      CLEAR     67  59  75 SW6       29.98R
EMPORIA        CLEAR     66  60  81 SW5       30.00R
CHANUTE        CLEAR     66  62  87 S5        29.99R
WICHITA        CLEAR     72  58  61 CALM      30.00R
OMAHA          PTCLDY    67  56  67 W9        29.93R
LINCOLN        CLEAR     69  56  62 NW8       29.96R
FALLS CITY     CLEAR     67  60  78 SW7       29.94R
LAMONI         CLEAR     63  60  90 SW9       29.93R
DES MOINES     PTCLDY    68  56  65 SW10      29.87R

$$





USA.gov is the U.S. government's official web portal to all federal, state and local government web resources and services.